[[{"header":{"parameterUnit":"m.s-1","parameterCategory":1,"la1":30.2991,"la2":30.254,"lo1":-89.0895,"lo2":-89.0444,"dy":0.0017,"dx":0.0017,"nx":28,"ny":28,"refTime":"2025-12-04T03:00:00:Z","depth":0,"parameterNumber":2,"parameterNumberName":"U-component_of_WINDS"},"data":[0,0,0,0,0,0,0,0,0,0,0,0,0,0,0,0,0,0,0,0,0,0,0,0,0,0,0,0,0,0,0,0,0,0,0,0,0,0,0,0,0,0,0,0,0,0,0,0,0,0,0,0,0,0,0,0,0,0,-1.5432,-1.5433,0,-1.556,-1.5562,-1.5563,-1.5504,-1.5501,-1.5498,-1.5495,-1.5633,-1.5639,-1.5646,0,0,0,0,0,0,0,0,0,0,0,0,0,-1.5141,-1.5146,-1.5432,-1.5433,-1.5435,-1.556,-1.5562,-1.5564,-1.5505,-1.5501,-1.5497,-1.5493,-1.5631,-1.5639,-1.5647,0,0,0,0,0,0,0,0,0,0,0,0,0,-1.5268,-1.5148,-1.5431,-1.5421,-1.5421,-1.556,-1.5562,-1.5564,-1.5506,-1.5501,-1.5496,-1.5492,-1.5628,-1.5638,-1.5648,-1.5807,0,0,-1.5678,-1.5683,0,0,0,0,0,0,0,0,-1.5261,-1.5279,-1.5421,-1.5422,-1.5422,-1.5511,-1.551,-1.5646,-1.5507,-1.5474,-1.5495,-1.5489,-1.5597,-1.5609,-1.5644,-1.5813,-1.5819,-1.5679,-1.5685,-1.569,-1.5692,0,0,0,0,0,0,0,-1.5252,-1.5273,-1.5483,-1.5423,-1.5424,-1.5411,-1.5424,-1.5535,-1.5561,-1.5476,-1.5472,-1.5488,-1.5596,-1.5635,-1.5647,-1.5821,-1.5679,-1.5688,-1.5694,-1.5698,-1.6129,-1.6134,0,0,0,0,0,0,-1.5243,-1.5266,-1.5479,-1.5487,-1.5328,-1.542,-1.5435,-1.5488,-1.556,-1.5566,-1.5492,-1.5485,-1.562,-1.5635,-1.5652,-1.5844,-1.569,-1.5699,-1.5705,-1.6124,-1.613,-1.6136,0,0,0,0,0,0,-1.5237,-1.5262,-1.5473,-1.5375,-1.5401,-1.543,-1.5491,-1.5493,-1.5531,-1.5571,-1.5576,-1.5526,-1.5617,-1.5637,-1.5769,-1.5848,-1.5703,-1.5713,-1.6117,-1.6126,-1.6133,-1.6229,0,0,0,0,0,0,-1.5229,-1.5261,-1.532,-1.5377,-1.5407,-1.5587,-1.5495,-1.5499,-1.5548,-1.5539,-1.5605,-1.5611,-1.5614,-1.5754,-1.5779,-1.5859,-1.572,-1.611,-1.6121,-1.6131,-1.6219,-1.6239,-1.6257,0,0,0,0,0,-1.5219,-1.5343,-1.5323,-1.5349,-1.5481,-1.5592,-1.5609,-1.5608,-1.5554,-1.5615,-1.5641,-1.5609,-1.5835,-1.5768,-1.5795,-1.588,-1.6105,-1.6118,-1.613,-1.621,-1.6235,-1.6256,0,0,0,0,0,0,-1.5296,-1.535,-1.5329,-1.5475,-1.5529,-1.5581,-1.5658,-1.5635,-1.5707,-1.5696,-1.5694,-1.571,-1.5846,-1.5876,-1.58,-1.6038,-1.5962,-1.598,-1.6014,-1.6038,-1.6056,-1.6047,-1.5729,0,0,0,0,0,-1.533,-1.5413,-1.5456,-1.5581,-1.5609,-1.5629,-1.5677,-1.5672,-1.5729,-1.5752,-1.5787,-1.5846,-1.5929,-1.5985,-1.6064,-1.6222,-1.6237,-1.6294,-1.6313,-1.6328,-1.6345,-1.6432,-1.6458,-1.6176,-1.6176,-1.6176,0,0,-1.5401,-1.5441,-1.5494,-1.5598,-1.5639,-1.5727,-1.5649,-1.5745,-1.5811,-1.5767,-1.5893,-1.5921,-1.5986,-1.6131,-1.6197,-1.6161,-1.6425,-1.6344,-1.6356,-1.6364,-1.6447,-1.6474,-1.6498,-1.6185,-1.6183,-1.6182,0,0,-1.5576,-1.5614,-1.5722,-1.5765,-1.5828,-1.584,-1.5866,-1.5923,-1.5939,-1.6065,-1.6034,-1.6113,-1.6258,-1.6305,-1.6348,-1.6542,-1.6516,-1.6568,-1.6668,-1.6753,-1.6775,-1.6795,-1.6866,-1.6891,-1.6584,-1.6584,-1.6584,0,-1.5658,-1.5787,-1.5782,-1.5881,-1.5928,-1.589,-1.6001,-1.6043,-1.613,-1.6165,-1.6121,-1.6302,-1.6343,-1.65,-1.6547,-1.6582,-1.6614,-1.6561,-1.6772,-1.6792,-1.681,-1.6878,-1.6904,-1.659,-1.659,-1.6589,-1.6588,0,-1.5885,-1.5976,-1.6056,-1.6139,-1.6195,-1.63,-1.6312,-1.637,-1.636,-1.6378,-1.6508,-1.6555,-1.6644,-1.668,-1.6672,-1.6837,-1.6812,-1.6771,-1.6695,-1.6843,-1.6907,-1.6932,-1.6599,-1.6597,-1.6595,-1.6593,0,0,-1.6114,-1.6191,-1.6221,-1.6258,-1.6325,-1.6396,-1.65,-1.6585,-1.6635,-1.6696,-1.6785,-1.6908,-1.687,-1.6919,-1.6916,-1.699,-1.7143,-1.694,-1.6942,-1.6977,-1.7329,-1.736,-1.739,-1.7125,-1.7129,-1.7133,-1.7324,0,-1.6295,-1.6474,-1.6472,-1.664,-1.6724,-1.6689,-1.678,-1.6832,-1.6851,-1.6928,-1.695,-1.7037,-1.698,-1.7009,-1.7081,-1.7109,-1.7213,-1.7095,-1.7209,-1.7213,-1.7195,-1.7423,-1.7457,-1.7634,-1.7348,-1.7353,-1.7356,0,-1.653,-1.6597,-1.6772,-1.6827,-1.6862,-1.6944,-1.7022,-1.7094,-1.7153,-1.7162,-1.7217,-1.7203,-1.731,-1.723,-1.7379,-1.7299,-1.7345,-1.7366,-1.7373,-1.7385,-1.7294,-1.7443,-1.769,-1.7718,-1.7394,-1.7391,-1.7388,0,-1.6681,-1.6815,-1.6937,-1.697,-1.7037,-1.7095,-1.7126,-1.7179,-1.7231,-1.73,-1.7334,-1.7415,-1.7461,-1.7525,-1.7534,-1.7474,-1.7685,-1.7605,-1.7697,-1.7697,-1.7744,-1.7742,-1.8005,-1.7772,-1.7772,-1.7771,-1.7771,0,-1.6884,-1.6993,-1.7006,-1.7082,-1.7203,-1.7201,-1.7322,-1.7348,-1.7396,-1.7478,-1.7453,-1.753,-1.7536,-1.7617,-1.7624,-1.7748,-1.7768,-1.778,-1.7781,-1.7783,-1.7782,-1.7815,-1.7803,-1.7779,-1.7777,-1.7776,-1.7774,0,-1.7074,-1.7086,-1.7218,-1.727,-1.7285,-1.7373,-1.7418,-1.7491,-1.7508,-1.7612,-1.7636,-1.7663,-1.7756,-1.7771,-1.7881,-1.7886,-1.8034,-1.8022,-1.8014,-1.8013,-1.8105,-1.8097,-1.84,-1.844,-1.8181,-1.8183,-1.8185,0,-1.7203,-1.7286,-1.7346,-1.7398,-1.7431,-1.7515,-1.7567,-1.7569,-1.7625,-1.7698,-1.7763,-1.7853,-1.7925,-1.8076,-1.8107,-1.8192,-1.8182,-1.8282,-1.8195,-1.8194,-1.8185,-1.8181,-1.819,-1.83,-1.8303,-1.8305,-1.8307,0,-1.7432,-1.7434,-1.7509,-1.7587,-1.7649,-1.7711,-1.777,-1.7814,-1.7823,-1.7888,-1.7981,-1.8037,-1.8149,-1.824,-1.8323,-1.8357,-1.8335,-1.8334,-1.836,-1.8363,-1.8356,-1.8362,-1.8062,-1.8327,-1.8325,-1.8324,-1.8323,-1.8322,-1.7596,-1.7668,-1.7722,-1.7807,-1.7851,-1.7906,-1.7977,-1.8002,-1.808,-1.817,-1.8166,-1.827,-1.8328,-1.8438,-1.8477,-1.856,-1.8528,-1.8565,-1.8575,-1.8585,-1.8594,-1.8342,-1.8575,-1.8575,-1.8574,-1.8574,-1.8573,0,-1.7824,-1.7857,-1.7935,-1.8017,-1.8084,-1.8054,-1.8118,-1.8177,-1.8268,-1.8323,-1.8394,-1.8503,-1.8591,-1.8628,-1.8715,-1.8774,-1.8766,-1.8797,-1.8794,-1.8802,-1.8617,-1.8587,-1.8802,-1.8802,-1.8802,-1.8802,-1.8802,-1.8802,-1.7951,-1.8072,-1.8081,-1.8224,-1.8257,-1.8357,-1.8396,-1.8447,-1.8491,-1.8613,-1.8685,-1.8708,-1.8757,-1.8847,-1.8928,-1.8936,-1.897,-1.9006,-1.9011,-1.8838,-1.8815,-1.8793,-1.8764,-1.9013,-1.9014,-1.9189,-1.919,-1.9192]},{"header":{"parameterUnit":"m.s-1","parameterCategory":1,"la1":30.2991,"la2":30.254,"lo1":-89.0895,"lo2":-89.0444,"dy":0.0017,"dx":0.0017,"nx":28,"ny":28,"refTime":"2025-12-04T03:00:00:Z","depth":0,"parameterNumber":3,"parameterNumberName":"V-component_of_WINDS"},"data":[0,0,0,0,0,0,0,0,0,0,0,0,0,0,0,0,0,0,0,0,0,0,0,0,0,0,0,0,0,0,0,0,0,0,0,0,0,0,0,0,0,0,0,0,0,0,0,0,0,0,0,0,0,0,0,0,0,0,-3.8472,-3.8471,0,-3.8386,-3.8385,-3.8384,-3.8323,-3.8323,-3.8322,-3.8322,-3.8231,-3.8229,-3.8227,0,0,0,0,0,0,0,0,0,0,0,0,0,-3.8578,-3.8576,-3.8472,-3.8471,-3.847,-3.8386,-3.8385,-3.8384,-3.8323,-3.8323,-3.8322,-3.8321,-3.8231,-3.8229,-3.8227,0,0,0,0,0,0,0,0,0,0,0,0,0,-3.8516,-3.8576,-3.8472,-3.843,-3.8425,-3.8387,-3.8385,-3.8384,-3.8323,-3.8323,-3.8322,-3.8321,-3.8232,-3.8229,-3.8226,-3.8223,0,0,-3.8217,-3.8216,0,0,0,0,0,0,0,0,-3.852,-3.8512,-3.8437,-3.8433,-3.8427,-3.8365,-3.8389,-3.833,-3.8323,-3.8362,-3.8322,-3.8321,-3.8276,-3.8269,-3.8254,-3.8218,-3.8214,-3.8217,-3.8215,-3.8214,-3.8213,0,0,0,0,0,0,0,-3.8524,-3.8516,-3.8438,-3.8436,-3.843,-3.8413,-3.8403,-3.8377,-3.8324,-3.8358,-3.8354,-3.8345,-3.8273,-3.8257,-3.8252,-3.8213,-3.8217,-3.8214,-3.8213,-3.8211,-3.8164,-3.8164,0,0,0,0,0,0,-3.8536,-3.852,-3.8441,-3.8435,-3.8473,-3.8412,-3.8401,-3.8385,-3.8324,-3.8314,-3.8345,-3.8342,-3.8263,-3.8255,-3.8248,-3.8237,-3.8214,-3.8211,-3.8209,-3.8163,-3.8164,-3.8164,0,0,0,0,0,0,-3.8538,-3.8529,-3.8444,-3.8476,-3.8464,-3.8411,-3.8394,-3.8384,-3.8369,-3.8314,-3.8304,-3.834,-3.8262,-3.8253,-3.8228,-3.8233,-3.821,-3.8207,-3.8163,-3.8163,-3.8164,-3.8216,0,0,0,0,0,0,-3.8541,-3.8531,-3.853,-3.8477,-3.8463,-3.8428,-3.8394,-3.8383,-3.8364,-3.8359,-3.8306,-3.8297,-3.8261,-3.8233,-3.8226,-3.8228,-3.8205,-3.8162,-3.8163,-3.8164,-3.8213,-3.8218,-3.8222,0,0,0,0,0,-3.8545,-3.8549,-3.8531,-3.8521,-3.8461,-3.8428,-3.842,-3.838,-3.8365,-3.8363,-3.8327,-3.8298,-3.8234,-3.8231,-3.8222,-3.8224,-3.8162,-3.8163,-3.8164,-3.8211,-3.8217,-3.8222,0,0,0,0,0,0,-3.8604,-3.8541,-3.852,-3.8507,-3.8473,-3.8418,-3.8415,-3.8388,-3.8357,-3.8354,-3.8303,-3.8292,-3.8272,-3.8246,-3.8244,-3.8214,-3.8194,-3.8193,-3.8233,-3.8238,-3.8242,-3.8249,-3.8202,0,0,0,0,0,-3.8615,-3.8595,-3.8541,-3.8534,-3.8518,-3.8469,-3.8453,-3.8425,-3.8388,-3.8373,-3.8336,-3.83,-3.827,-3.8253,-3.8224,-3.8209,-3.8194,-3.8205,-3.821,-3.8213,-3.8213,-3.8199,-3.8202,-3.8168,-3.8168,-3.8168,0,0,-3.8639,-3.8602,-3.8592,-3.8544,-3.8515,-3.8493,-3.8458,-3.8437,-3.842,-3.837,-3.8344,-3.8315,-3.8271,-3.8251,-3.824,-3.8228,-3.8219,-3.8215,-3.8218,-3.8216,-3.8201,-3.8204,-3.8207,-3.8169,-3.8169,-3.8169,0,0,-3.8669,-3.8641,-3.863,-3.8601,-3.8557,-3.8524,-3.8521,-3.8469,-3.8448,-3.8422,-3.8382,-3.836,-3.8312,-3.8281,-3.8259,-3.8274,-3.8245,-3.8265,-3.8288,-3.8275,-3.8278,-3.828,-3.8282,-3.8284,-3.8265,-3.8265,-3.8265,0,-3.8704,-3.8671,-3.8628,-3.8608,-3.8587,-3.854,-3.8527,-3.8501,-3.8449,-3.8434,-3.8422,-3.8358,-3.8325,-3.8295,-3.8298,-3.8283,-3.8276,-3.8271,-3.8281,-3.8283,-3.8284,-3.8286,-3.8287,-3.8268,-3.8268,-3.8267,-3.8267,0,-3.8713,-3.8691,-3.8687,-3.8638,-3.8616,-3.86,-3.8552,-3.8535,-3.8507,-3.8474,-3.8445,-3.8404,-3.8364,-3.8354,-3.8327,-3.8318,-3.8312,-3.8291,-3.8269,-3.8291,-3.8291,-3.8292,-3.8272,-3.8271,-3.827,-3.8269,0,0,-3.878,-3.8706,-3.8705,-3.8681,-3.8627,-3.8608,-3.8588,-3.8549,-3.8533,-3.8498,-3.8478,-3.8436,-3.8415,-3.839,-3.8359,-3.8347,-3.8357,-3.8327,-3.8325,-3.8332,-3.8341,-3.8356,-3.8358,-3.8337,-3.8337,-3.8337,-3.8344,0,-3.8801,-3.8765,-3.8724,-3.8701,-3.8677,-3.8631,-3.8613,-3.8576,-3.8544,-3.8518,-3.8481,-3.8452,-3.8428,-3.8412,-3.8398,-3.8359,-3.8358,-3.8358,-3.8316,-3.8315,-3.8328,-3.8359,-3.8376,-3.8384,-3.8344,-3.8344,-3.8344,0,-3.8822,-3.8789,-3.8764,-3.8709,-3.8697,-3.8682,-3.8641,-3.8617,-3.8573,-3.855,-3.852,-3.8486,-3.8459,-3.8439,-3.8399,-3.84,-3.838,-3.8357,-3.8356,-3.8351,-3.8331,-3.8352,-3.8386,-3.8387,-3.8344,-3.8344,-3.8344,0,-3.887,-3.8819,-3.8797,-3.8778,-3.8714,-3.8704,-3.8676,-3.8632,-3.861,-3.8572,-3.8557,-3.8517,-3.8495,-3.8463,-3.8417,-3.8408,-3.838,-3.8358,-3.8358,-3.8359,-3.8355,-3.8356,-3.8385,-3.8344,-3.8344,-3.8344,-3.8344,0,-3.8897,-3.8883,-3.8817,-3.8803,-3.8785,-3.8736,-3.8718,-3.8686,-3.8646,-3.8622,-3.8579,-3.8558,-3.8499,-3.8469,-3.8433,-3.8403,-3.8394,-3.8372,-3.8363,-3.8376,-3.8378,-3.8362,-3.8359,-3.8344,-3.8344,-3.8344,-3.8344,0,-3.8949,-3.8904,-3.8876,-3.8818,-3.8802,-3.8791,-3.8739,-3.8722,-3.8686,-3.8657,-3.8647,-3.859,-3.8553,-3.8504,-3.8451,-3.8426,-3.84,-3.8386,-3.8415,-3.8409,-3.8411,-3.8411,-3.843,-3.8429,-3.839,-3.8391,-3.8391,0,-3.8968,-3.8956,-3.8896,-3.8878,-3.8852,-3.8823,-3.88,-3.875,-3.8727,-3.8674,-3.8662,-3.8622,-3.8587,-3.8528,-3.848,-3.8438,-3.8422,-3.8431,-3.8415,-3.8427,-3.8419,-3.842,-3.8417,-3.8435,-3.8436,-3.8436,-3.8437,0,-3.9007,-3.8985,-3.8955,-3.8915,-3.8889,-3.8855,-3.8819,-3.8806,-3.8748,-3.8724,-3.8685,-3.8658,-3.8603,-3.8562,-3.8513,-3.8481,-3.8448,-3.8442,-3.8439,-3.8452,-3.8469,-3.8458,-3.8425,-3.8442,-3.8441,-3.8441,-3.8441,-3.8441,-3.9042,-3.9028,-3.8982,-3.8948,-3.8916,-3.8883,-3.8863,-3.8825,-3.8792,-3.8745,-3.8716,-3.8678,-3.8629,-3.856,-3.853,-3.8497,-3.8484,-3.8481,-3.848,-3.848,-3.8483,-3.8475,-3.8488,-3.8487,-3.8487,-3.8487,-3.8487,0,-3.9076,-3.9045,-3.9014,-3.8965,-3.8938,-3.891,-3.8868,-3.8846,-3.8813,-3.8772,-3.8738,-3.8691,-3.865,-3.8598,-3.8552,-3.8536,-3.8519,-3.8525,-3.8525,-3.8518,-3.8498,-3.8504,-3.8539,-3.8539,-3.8539,-3.8539,-3.8539,-3.8539,-3.9091,-3.9065,-3.9037,-3.8993,-3.896,-3.8924,-3.8902,-3.8869,-3.8836,-3.8787,-3.8753,-3.8719,-3.8672,-3.8622,-3.8582,-3.8567,-3.8551,-3.8562,-3.8542,-3.8524,-3.852,-3.8515,-3.8521,-3.8559,-3.8559,-3.8565,-3.8565,-3.8565]}]]